Location: Cataure
(10.5167°N, 67.1000°W)
Time: 08:21:04
(UTC+00:00)

NOSS 3-1 (A) - Pass Details

Date: 18 April 2024
Orbit: 660 x 1550 km, 63.4° (Epoch: 15 May)

Event Time Altitude Azimuth Distance (km) Brightness Sun altitude
Rises 23:08:02 0° 213° (SSW) 3,033 6.4 -7.7°
Reaches altitude 10° 23:10:24 10° 217° (SW) 2,082 5.6 -8.3°
Maximum altitude 23:14:54 54° 295° (WNW) 802 3.6 -9.3°
Drops below altitude 10° 23:19:31 10° 12° (NNE) 2,141 5.3 -10.4°
Sets 23:21:59 0° 17° (NNE) 3,128 6.1 -11.0°
